2014-11-03 00:01:35 r, 18.94m,0000000002Hz,0000206815c,0000000.449s, 014.8C,00002191
2014-11-03 00:11:32 r, 18.99m,0000000002Hz,0000216763c,0000000.470s, 014.8C,00002191
2014-11-03 00:21:32 r, 19.21m,0000000002Hz,0000262063c,0000000.569s, 014.8C,00002191
2014-11-03 00:31:33 r, 19.57m,0000000002Hz,0000365845c,0000000.794s, 014.5C,00002191
2014-11-03 00:41:34 r, 18.35m,0000000003Hz,0000119964c,0000000.260s, 014.5C,00002191
2014-11-03 00:51:40 r, 18.46m,0000000003Hz,0000134052c,0000000.291s, 014.8C,00002191
2014-11-03 01:01:33 r, 19.03m,0000000002Hz,0000224668c,0000000.488s, 015.1C,00002191
2014-11-03 01:11:34 r, 18.49m,0000000003Hz,0000137088c,0000000.298s, 015.4C,00002191
2014-11-03 01:21:32 r, 19.17m,0000000002Hz,0000255343c,0000000.554s, 015.7C,00002191
2014-11-03 01:31:34 r, 19.08m,0000000002Hz,0000234879c,0000000.510s, 015.7C,00002191
2014-11-03 01:41:32 r, 18.91m,0000000003Hz,0000201545c,0000000.437s, 016.1C,00002191
2014-11-03 01:51:32 r, 18.49m,0000000003Hz,0000136228c,0000000.296s, 016.4C,00002191
2014-11-03 02:01:34 r, 18.88m,0000000002Hz,0000195806c,0000000.425s, 016.7C,00002191
2014-11-03 02:11:32 r, 18.62m,0000000003Hz,0000154525c,0000000.335s, 017.0C,00002191
2014-11-03 02:21:34 r, 19.19m,0000000001Hz,0000261021c,0000000.566s, 017.0C,00002191
2014-11-03 02:31:32 r, 18.69m,0000000003Hz,0000164329c,0000000.357s, 017.4C,00002191
2014-11-03 02:41:34 r, 19.04m,0000000002Hz,0000227291c,0000000.493s, 017.4C,00002191
2014-11-03 02:51:32 r, 19.09m,0000000002Hz,0000237084c,0000000.515s, 017.0C,00002191
2014-11-03 03:01:35 r, 19.47m,0000000002Hz,0000336981c,0000000.731s, 017.0C,00002191
2014-11-03 03:11:32 r, 19.31m,0000000001Hz,0000291715c,0000000.633s, 017.0C,00002191
2014-11-03 03:21:32 r, 19.33m,0000000001Hz,0000298446c,0000000.648s, 016.7C,00002191
2014-11-03 03:31:34 r, 19.51m,0000000001Hz,0000346257c,0000000.751s, 016.7C,00002191
2014-11-03 03:41:32 r, 19.59m,0000000001Hz,0000372118c,0000000.808s, 016.4C,00002191
2014-11-03 03:51:34 r, 19.18m,0000000002Hz,0000258204c,0000000.560s, 016.4C,00002191
2014-11-03 04:01:34 r, 19.17m,0000000002Hz,0000255198c,0000000.554s, 016.1C,00002191
2014-11-03 04:11:32 r, 19.28m,0000000002Hz,0000284284c,0000000.617s, 016.1C,00002191
2014-11-03 04:21:32 r, 19.56m,0000000001Hz,0000362736c,0000000.787s, 016.1C,00002191
2014-11-03 04:31:35 r, 20.61m,0000000000Hz,0000942802c,0000002.046s, 015.7C,00002191
2014-11-03 04:41:34 r, 20.68m,0000000001Hz,0001011809c,0000002.196s, 015.4C,00002191
2014-11-03 04:51:34 r, 20.69m,0000000000Hz,0001020201c,0000002.214s, 014.8C,00002191
2014-11-03 05:01:33 r, 20.69m,0000000001Hz,0001018697c,0000002.211s, 014.5C,00002191
2014-11-03 05:11:32 r, 20.69m,0000000000Hz,0001018929c,0000002.211s, 014.1C,00002191
2014-11-03 05:21:35 r, 20.68m,0000000000Hz,0001014824c,0000002.202s, 013.8C,00002191
2014-11-03 05:31:33 r, 20.67m,0000000001Hz,0000999518c,0000002.169s, 013.5C,00002191
2014-11-03 05:41:34 r, 20.58m,0000000000Hz,0000919733c,0000001.996s, 013.2C,00002191
2014-11-03 05:51:32 r, 20.52m,0000000001Hz,0000871400c,0000001.891s, 012.8C,00002191
2014-11-03 06:01:34 r, 20.18m,0000000001Hz,0000640996c,0000001.391s, 012.5C,00002191
2014-11-03 06:11:33 r, 19.35m,0000000001Hz,0000300550c,0000000.652s, 012.2C,00002191
2014-11-03 06:21:34 r, 17.87m,0000000006Hz,0000077818c,0000000.169s, 012.2C,00002191
2014-11-03 06:31:39 r, 16.26m,0000000026Hz,0000017456c,0000000.038s, 012.2C,00002191
2014-11-03 06:41:34 r, 14.47m,0000000138Hz,0000000000c,0000000.000s, 012.2C,00002191
2014-11-03 06:51:34 r, 12.32m,0000000998Hz,0000000000c,0000000.000s, 012.2C,00002191
2014-11-03 07:01:32 r, 10.32m,0000006330Hz,0000000000c,0000000.000s, 012.2C,00002191
2014-11-03 07:11:34 r, 08.69m,0000028162Hz,0000000000c,0000000.000s, 012.2C,00002191
2014-11-03 07:21:32 r, 07.60m,0000076801Hz,0000000000c,0000000.000s, 012.2C,00002191
2014-11-03 07:31:35 r, 06.89m,0000149091Hz,0000000000c,0000000.000s, 011.9C,00002191
2014-11-03 07:41:32 r, 06.39m,0000235006Hz,0000000000c,0000000.000s, 011.9C,00002191
2014-11-03 07:51:35 r, 06.08m,0000313670Hz,0000000000c,0000000.000s, 012.2C,00002191
2014-11-03 08:01:32 r, 00.00m,0000432918Hz,0000000000c,0000000.000s, 012.5C,00002191
2014-11-03 08:11:35 r, 00.00m,0000530630Hz,0000000000c,0000000.000s, 012.8C,00002191
2014-11-03 08:21:32 r, 00.00m,0000596183Hz,0000000000c,0000000.000s, 013.8C,00002191
2014-11-03 08:31:34 r, 00.00m,0000596007Hz,0000000000c,0000000.000s, 015.4C,00002191
2014-11-03 08:41:32 r, 00.00m,0000595849Hz,0000000000c,0000000.000s, 017.0C,00002191
2014-11-03 08:51:34 r, 00.00m,0000595787Hz,0000000000c,0000000.000s, 018.3C,00002191
2014-11-03 09:01:32 r, 00.00m,0000595686Hz,0000000000c,0000000.000s, 019.6C,00002191
2014-11-03 09:11:34 r, 00.00m,0000595643Hz,0000000000c,0000000.000s, 020.3C,00002191
2014-11-03 09:21:32 r, 00.00m,0000595629Hz,0000000000c,0000000.000s, 020.6C,00002191
2014-11-03 09:31:35 r, 00.00m,0000595503Hz,0000000000c,0000000.000s, 019.9C,00002191
2014-11-03 09:41:35 r, 00.00m,0000595525Hz,0000000000c,0000000.000s, 019.9C,00002191
2014-11-03 09:51:35 r, 00.00m,0000595322Hz,0000000000c,0000000.000s, 021.2C,00002191
2014-11-03 10:01:32 r, 00.00m,0000595364Hz,0000000000c,0000000.000s, 021.9C,00002191
2014-11-03 10:11:34 r, 00.00m,0000595238Hz,0000000000c,0000000.000s, 022.8C,00002191
2014-11-03 10:21:32 r, 00.00m,0000595202Hz,0000000000c,0000000.000s, 023.8C,00002191
2014-11-03 10:31:34 r, 00.00m,0000595158Hz,0000000000c,0000000.000s, 024.8C,00002191
2014-11-03 10:41:33 r, 00.00m,0000595169Hz,0000000000c,0000000.000s, 025.4C,00002191
2014-11-03 10:51:34 r, 00.00m,0000595053Hz,0000000000c,0000000.000s, 025.4C,00002191
2014-11-03 11:01:33 r, 00.00m,0000595145Hz,0000000000c,0000000.000s, 025.4C,00002191
2014-11-03 11:11:35 r, 00.00m,0000595069Hz,0000000000c,0000000.000s, 026.4C,00002191
2014-11-03 11:21:33 r, 00.00m,0000594916Hz,0000000000c,0000000.000s, 027.0C,00002191
2014-11-03 11:31:35 r, 00.00m,0000594999Hz,0000000000c,0000000.000s, 027.0C,00002191
2014-11-03 11:41:33 r, 00.00m,0000595068Hz,0000000000c,0000000.000s, 026.1C,00002191
2014-11-03 11:51:32 r, 00.00m,0000595174Hz,0000000000c,0000000.000s, 025.4C,00002191
2014-11-03 12:01:32 r, 00.00m,0000595145Hz,0000000000c,0000000.000s, 025.1C,00002191
2014-11-03 12:11:33 r, 00.00m,0000595192Hz,0000000000c,0000000.000s, 024.4C,00002191
2014-11-03 12:21:35 r, 00.00m,0000595205Hz,0000000000c,0000000.000s, 024.4C,00002191
2014-11-03 12:31:33 r, 00.00m,0000594969Hz,0000000000c,0000000.000s, 026.1C,00002191
2014-11-03 12:41:35 r, 00.00m,0000595142Hz,0000000000c,0000000.000s, 024.8C,00002191
2014-11-03 12:51:32 r, 00.00m,0000595190Hz,0000000000c,0000000.000s, 024.4C,00002191
2014-11-03 13:01:32 r, 00.00m,0000595204Hz,0000000000c,0000000.000s, 024.1C,00002191
2014-11-03 13:11:35 r, 00.00m,0000595176Hz,0000000000c,0000000.000s, 024.1C,00002191
2014-11-03 13:21:32 r, 00.00m,0000595218Hz,0000000000c,0000000.000s, 024.1C,00002191
2014-11-03 13:31:35 r, 00.00m,0000595198Hz,0000000000c,0000000.000s, 023.8C,00002191
2014-11-03 13:41:33 r, 00.00m,0000595158Hz,0000000000c,0000000.000s, 023.8C,00002191
2014-11-03 13:51:34 r, 00.00m,0000595051Hz,0000000000c,0000000.000s, 024.4C,00002191
2014-11-03 14:01:32 r, 00.00m,0000595065Hz,0000000000c,0000000.000s, 024.4C,00002191
2014-11-03 14:11:34 r, 00.00m,0000595166Hz,0000000000c,0000000.000s, 024.4C,00002191
2014-11-03 14:21:34 r, 00.00m,0000595200Hz,0000000000c,0000000.000s, 024.1C,00002191
2014-11-03 14:31:34 r, 00.00m,0000595186Hz,0000000000c,0000000.000s, 023.5C,00002191
2014-11-03 14:41:34 r, 00.00m,0000595207Hz,0000000000c,0000000.000s, 022.8C,00002191
2014-11-03 14:51:35 r, 00.00m,0000595295Hz,0000000000c,0000000.000s, 022.8C,00002191
2014-11-03 15:01:33 r, 00.00m,0000595351Hz,0000000000c,0000000.000s, 022.2C,00002191
2014-11-03 15:11:37 r, 00.00m,0000595448Hz,0000000000c,0000000.000s, 021.5C,00002191
2014-11-03 15:21:33 r, 00.00m,0000595389Hz,0000000000c,0000000.000s, 021.2C,00002191
2014-11-03 15:31:35 r, 00.00m,0000595431Hz,0000000000c,0000000.000s, 021.2C,00002191
2014-11-03 15:41:33 r, 00.00m,0000595362Hz,0000000000c,0000000.000s, 020.9C,00002191
2014-11-03 15:51:34 r, 05.87m,0000378388Hz,0000000000c,0000000.000s, 020.6C,00002191
2014-11-03 16:01:33 r, 00.00m,0000452115Hz,0000000000c,0000000.000s, 020.6C,00002191
2014-11-03 16:11:34 r, 06.26m,0000266219Hz,0000000000c,0000000.000s, 020.6C,00002191
2014-11-03 16:21:32 r, 06.84m,0000155472Hz,0000000000c,0000000.000s, 020.3C,00002191
2014-11-03 16:31:33 r, 06.74m,0000170353Hz,0000000000c,0000000.000s, 019.9C,00002191
2014-11-03 16:41:35 r, 07.07m,0000125616Hz,0000000000c,0000000.000s, 019.6C,00002191
2014-11-03 16:51:35 r, 07.02m,0000131736Hz,0000000000c,0000000.000s, 019.6C,00002191
2014-11-03 17:01:32 r, 08.41m,0000036826Hz,0000000000c,0000000.000s, 019.6C,00002191
2014-11-03 17:11:35 r, 09.48m,0000013644Hz,0000000000c,0000000.000s, 019.3C,00002191
2014-11-03 17:21:32 r, 10.74m,0000004307Hz,0000000000c,0000000.000s, 019.3C,00002191
2014-11-03 17:31:34 r, 12.57m,0000000789Hz,0000000000c,0000000.000s, 019.0C,00002191
2014-11-03 17:41:33 r, 15.03m,0000000082Hz,0000005636c,0000000.012s, 019.0C,00002191
2014-11-03 17:51:35 r, 16.40m,0000000023Hz,0000019934c,0000000.043s, 019.0C,00002191
2014-11-03 18:01:32 r, 17.38m,0000000010Hz,0000049045c,0000000.106s, 019.0C,00002191
2014-11-03 18:11:34 r, 17.90m,0000000006Hz,0000079437c,0000000.172s, 019.0C,00002191
2014-11-03 18:21:34 r, 17.92m,0000000006Hz,0000081347c,0000000.177s, 019.0C,00002191
2014-11-03 18:31:35 r, 17.83m,0000000007Hz,0000074730c,0000000.162s, 019.0C,00002191
2014-11-03 18:41:34 r, 18.26m,0000000004Hz,0000110195c,0000000.239s, 018.6C,00002191
2014-11-03 18:51:35 r, 18.36m,0000000004Hz,0000121746c,0000000.264s, 018.6C,00002191
2014-11-03 19:01:32 r, 18.39m,0000000003Hz,0000123924c,0000000.269s, 018.6C,00002191
2014-11-03 19:11:34 r, 17.97m,0000000005Hz,0000084983c,0000000.184s, 018.6C,00002191
2014-11-03 19:21:35 r, 18.06m,0000000005Hz,0000091489c,0000000.199s, 018.3C,00002191
2014-11-03 19:31:34 r, 18.14m,0000000005Hz,0000098907c,0000000.215s, 018.3C,00002191
2014-11-03 19:41:34 r, 17.91m,0000000006Hz,0000080220c,0000000.174s, 018.3C,00002191
2014-11-03 19:51:34 r, 17.87m,0000000006Hz,0000077590c,0000000.168s, 018.0C,00002191
2014-11-03 20:01:32 r, 18.14m,0000000005Hz,0000099283c,0000000.215s, 018.0C,00002191
2014-11-03 20:11:35 r, 18.22m,0000000004Hz,0000106789c,0000000.232s, 018.0C,00002191
2014-11-03 20:21:32 r, 18.07m,0000000005Hz,0000092289c,0000000.200s, 018.0C,00002191
2014-11-03 20:31:35 r, 18.03m,0000000005Hz,0000089375c,0000000.194s, 017.7C,00002191
2014-11-03 20:41:33 r, 18.17m,0000000005Hz,0000101753c,0000000.221s, 017.7C,00002191
2014-11-03 20:51:35 r, 18.13m,0000000004Hz,0000097798c,0000000.212s, 017.7C,00002191
2014-11-03 21:01:33 r, 18.13m,0000000005Hz,0000097755c,0000000.212s, 017.7C,00002191
2014-11-03 21:11:34 r, 18.10m,0000000005Hz,0000094869c,0000000.206s, 017.7C,00002191
2014-11-03 21:21:32 r, 18.00m,0000000005Hz,0000087376c,0000000.190s, 017.7C,00002191
2014-11-03 21:31:33 r, 17.82m,0000000006Hz,0000073786c,0000000.160s, 017.7C,00002191
2014-11-03 21:41:35 r, 17.85m,0000000006Hz,0000075880c,0000000.165s, 017.7C,00002191
2014-11-03 21:51:32 r, 17.70m,0000000007Hz,0000066192c,0000000.144s, 017.4C,00002191
2014-11-03 22:01:34 r, 17.78m,0000000007Hz,0000070766c,0000000.154s, 017.4C,00002191
2014-11-03 22:11:32 r, 17.86m,0000000006Hz,0000076346c,0000000.166s, 017.4C,00002191
2014-11-03 22:21:32 r, 17.74m,0000000007Hz,0000068267c,0000000.148s, 017.4C,00002191
2014-11-03 22:31:33 r, 17.72m,0000000007Hz,0000067183c,0000000.146s, 017.4C,00002191
2014-11-03 22:41:33 r, 17.85m,0000000006Hz,0000075938c,0000000.165s, 017.0C,00002191
2014-11-03 22:51:34 r, 17.61m,0000000008Hz,0000060607c,0000000.132s, 017.0C,00002191
2014-11-03 23:01:35 r, 17.69m,0000000007Hz,0000065119c,0000000.141s, 017.0C,00002191
2014-11-03 23:11:32 r, 17.43m,0000000009Hz,0000051453c,0000000.112s, 016.7C,00002191
2014-11-03 23:21:35 r, 17.55m,0000000008Hz,0000057585c,0000000.125s, 016.7C,00002191
2014-11-03 23:31:33 r, 17.11m,0000000012Hz,0000038537c,0000000.084s, 016.7C,00002191
2014-11-03 23:41:33 r, 17.31m,0000000010Hz,0000046324c,0000000.101s, 016.7C,00002191
2014-11-03 23:51:35 r, 17.33m,0000000010Hz,0000046657c,0000000.101s, 016.4C,00002191
